Plant City, FL

11:04 AM EDT on October 16, 2019 (GMT -0400)
Plant City Municipal

Weather History for KPCM - September, 2019

Change the Weather History Date:

Sunday, September 22, 2019

  Actual Average Record
Temperature  
Mean Temperature 79 °F -  
Max Temperature 89 °F 90 °F 96 °F (1980)
Min Temperature 69 °F 70 °F 59 °F (1938)
Cooling Degree Days 14    
Growing Degree Days 29 (Base 50)    
Moisture  
Dew Point 69 °F    
Average Humidity 74    
Maximum Humidity 94    
Minimum Humidity 51    
Precipitation  
Precipitation 0.00 in - - ()
Sea Level Pressure  
Sea Level Pressure 30.10 in    
Wind  
Wind Speed 6 mph ()    
Max Wind Speed 15 mph    
Max Gust Speed 24 mph    
Visibility 10.0 miles    
Events      
Averages and records for this station are not official NWS values.
T = Trace of Precipitation, MM = Missing Value Source: Averaged Metar Reports

Daily Weather History Graph

Daily Weather History Graph

Search for Another Location

Airport or City:

Astronomy

Sep. 22, 2019 Rise Set
Actual Time 7:17 AM EDT 7:25 PM EDT
Civil Twilight 6:53 AM EDT 7:48 PM EDT
Nautical Twilight 6:26 AM EDT 8:16 PM EDT
Astronomical Twilight 5:58 AM EDT 8:43 PM EDT
Moon 12:35 AM EDT (9/22) 2:48 PM EDT (9/22)
Length of Visible Light 12h 55m
Length of Day
12h 08m
Last Quarter, 44% of the Moon is Illuminated
Sep 22
Last Quarter
Sep 28
New
Oct 5
First Quarter
Oct 13
Full
Oct 21
Last Quarter

Hourly Weather History & Observations

Time (EDT) Temp. Heat Index Dew Point Humidity Pressure Visibility Wind Dir Wind Speed Gust Speed Precip Events Conditions
12:15 AM 75.2 °F - 69.8 °F 83% 30.14 in 10.0 mi NNE 5.8 mph - N/A   Clear
12:35 AM 75.2 °F - 69.8 °F 83% 30.14 in 10.0 mi NNE 5.8 mph - N/A   Scattered Clouds
12:55 AM 73.4 °F - 69.8 °F 88% 30.14 in 10.0 mi NNE 4.6 mph - N/A   Scattered Clouds
1:15 AM 73.4 °F - 69.8 °F 88% 30.13 in 10.0 mi NNE 4.6 mph - N/A   Clear
1:35 AM 73.4 °F - 69.8 °F 88% 30.13 in 10.0 mi NNE 4.6 mph - N/A   Scattered Clouds
1:55 AM 71.6 °F - 69.8 °F 94% 30.12 in 10.0 mi NE 4.6 mph - N/A   Mostly Cloudy
2:15 AM 71.6 °F - 69.8 °F 94% 30.12 in 10.0 mi NE 4.6 mph - N/A   Mostly Cloudy
2:35 AM 71.6 °F - 69.8 °F 94% 30.12 in 10.0 mi NNE 3.5 mph - N/A   Mostly Cloudy
2:55 AM 71.6 °F - 69.8 °F 94% 30.12 in 10.0 mi North 3.5 mph - N/A   Scattered Clouds
3:15 AM 71.6 °F - 69.8 °F 94% 30.12 in 10.0 mi North 3.5 mph - N/A   Scattered Clouds
3:35 AM 71.6 °F - 69.8 °F 94% 30.11 in 10.0 mi Calm Calm - N/A   Clear
3:55 AM 69.8 °F - 68.0 °F 94% 30.10 in 10.0 mi Calm Calm - N/A   Clear
4:15 AM 69.8 °F - 68.0 °F 94% 30.10 in 10.0 mi NNE 3.5 mph - N/A   Clear
4:35 AM 69.8 °F - 68.0 °F 94% 30.10 in 10.0 mi NNE 4.6 mph - N/A   Clear
4:55 AM 69.8 °F - 68.0 °F 94% 30.10 in 10.0 mi NNE 3.5 mph - N/A   Clear
5:15 AM 69.8 °F - 68.0 °F 94% 30.10 in 10.0 mi NNE 4.6 mph - N/A   Clear
5:35 AM 69.8 °F - 68.0 °F 94% 30.10 in 10.0 mi NNE 3.5 mph - N/A   Clear
5:55 AM 69.8 °F - 68.0 °F 94% 30.10 in 10.0 mi NNE 4.6 mph - N/A   Clear
6:15 AM 69.8 °F - 68.0 °F 94% 30.10 in 10.0 mi NNE 3.5 mph - N/A   Clear
6:35 AM 69.8 °F - 68.0 °F 94% 30.10 in 10.0 mi NNE 4.6 mph - N/A   Clear
6:55 AM 69.8 °F - 68.0 °F 94% 30.09 in 10.0 mi NNE 4.6 mph - N/A   Clear
7:15 AM 69.8 °F - 68.0 °F 94% 30.11 in 10.0 mi NNE 4.6 mph - N/A   Clear
7:35 AM 69.8 °F - 68.0 °F 94% 30.12 in 10.0 mi NNE 3.5 mph - N/A   Clear
7:55 AM 69.8 °F - 68.0 °F 94% 30.12 in 10.0 mi NNE 3.5 mph - N/A   Clear
8:15 AM 71.6 °F - 68.0 °F 88% 30.13 in 10.0 mi NE 6.9 mph - N/A   Clear
8:35 AM 73.4 °F - 69.8 °F 88% 30.13 in 10.0 mi NE 8.1 mph - N/A   Clear
8:55 AM 75.2 °F - 69.8 °F 83% 30.13 in 10.0 mi ENE 6.9 mph - N/A   Clear
9:15 AM 77.0 °F - 71.6 °F 83% 30.14 in 10.0 mi ENE 8.1 mph - N/A   Clear
9:35 AM 80.6 °F 83.9 °F 69.8 °F 70% 30.14 in 10.0 mi ENE 10.4 mph - N/A   Clear
9:55 AM 80.6 °F 83.9 °F 69.8 °F 70% 30.14 in 10.0 mi East 11.5 mph - N/A   Clear
10:15 AM 82.4 °F 86.3 °F 69.8 °F 66% 30.14 in 10.0 mi ENE 9.2 mph 16.1 mph N/A   Clear
10:35 AM 82.4 °F 85.4 °F 68.0 °F 62% 30.14 in 10.0 mi East 12.7 mph 24.2 mph N/A   Clear
10:55 AM 84.2 °F 88.4 °F 69.8 °F 62% 30.14 in 10.0 mi East 12.7 mph 20.7 mph N/A   Scattered Clouds
11:15 AM 84.2 °F 88.4 °F 69.8 °F 62% 30.13 in 10.0 mi ENE 13.8 mph 19.6 mph N/A   Scattered Clouds
11:35 AM 84.2 °F 88.4 °F 69.8 °F 62% 30.13 in 10.0 mi East 13.8 mph 19.6 mph N/A   Scattered Clouds
11:55 AM 84.2 °F 87.3 °F 68.0 °F 58% 30.13 in 10.0 mi ENE 12.7 mph 21.9 mph N/A   Mostly Cloudy
12:15 PM 86.0 °F 90.4 °F 69.8 °F 58% 30.12 in 10.0 mi East 10.4 mph 17.3 mph N/A   Scattered Clouds
12:35 PM 86.0 °F 90.4 °F 69.8 °F 58% 30.12 in 10.0 mi ENE 10.4 mph 18.4 mph N/A   Clear
12:55 PM 87.8 °F 92.6 °F 69.8 °F 55% 30.11 in 10.0 mi East 10.4 mph 19.6 mph N/A   Clear
1:15 PM 87.8 °F 92.6 °F 69.8 °F 55% 30.10 in 10.0 mi NE 11.5 mph 23.0 mph N/A   Scattered Clouds
1:35 PM 87.8 °F 92.6 °F 69.8 °F 55% 30.09 in 10.0 mi East 11.5 mph 19.6 mph N/A   Scattered Clouds
1:55 PM 87.8 °F 92.6 °F 69.8 °F 55% 30.09 in 10.0 mi East 10.4 mph 21.9 mph N/A   Scattered Clouds
2:15 PM 87.8 °F 92.6 °F 69.8 °F 55% 30.09 in 10.0 mi ENE 11.5 mph 24.2 mph N/A   Mostly Cloudy
2:35 PM 89.6 °F 94.7 °F 69.8 °F 52% 30.08 in 10.0 mi East 13.8 mph 17.3 mph N/A   Mostly Cloudy
2:55 PM 89.6 °F 96.2 °F 71.6 °F 55% 30.08 in 10.0 mi East 12.7 mph 20.7 mph N/A   Scattered Clouds
3:15 PM 87.8 °F 92.6 °F 69.8 °F 55% 30.07 in 10.0 mi NE 15.0 mph 20.7 mph N/A   Scattered Clouds
3:35 PM 89.6 °F 94.7 °F 69.8 °F 52% 30.07 in 10.0 mi East 13.8 mph 18.4 mph N/A   Scattered Clouds
3:55 PM 87.8 °F 92.6 °F 69.8 °F 55% 30.06 in 10.0 mi East 12.7 mph - N/A   Scattered Clouds
4:35 PM 89.6 °F 94.7 °F 69.8 °F 52% 30.05 in 10.0 mi ENE 12.7 mph 18.4 mph N/A   Clear
4:55 PM 87.8 °F 92.6 °F 69.8 °F 55% 30.05 in 10.0 mi East 10.4 mph 19.6 mph N/A   Scattered Clouds
5:15 PM 87.8 °F 91.4 °F 68.0 °F 52% 30.04 in 10.0 mi East 13.8 mph 18.4 mph N/A   Scattered Clouds
5:35 PM 86.0 °F 89.4 °F 68.0 °F 55% 30.05 in 10.0 mi ENE 8.1 mph 18.4 mph N/A   Mostly Cloudy
5:55 PM 86.0 °F 89.4 °F 68.0 °F 55% 30.05 in 10.0 mi ENE 11.5 mph 16.1 mph N/A   Scattered Clouds
6:15 PM 86.0 °F 88.2 °F 66.2 °F 51% 30.06 in 10.0 mi ENE 6.9 mph - N/A   Scattered Clouds
6:35 PM 86.0 °F 88.2 °F 66.2 °F 51% 30.06 in 10.0 mi ENE 11.5 mph - N/A   Scattered Clouds
6:55 PM 84.2 °F 86.6 °F 66.2 °F 55% 30.06 in 10.0 mi East 11.5 mph - N/A   Scattered Clouds
7:15 PM 82.4 °F 85.4 °F 68.0 °F 62% 30.07 in 10.0 mi ENE 8.1 mph - N/A   Scattered Clouds
7:35 PM 80.6 °F 83.2 °F 68.0 °F 65% 30.07 in 10.0 mi ENE 8.1 mph - N/A   Clear
7:55 PM 80.6 °F 83.2 °F 68.0 °F 65% 30.07 in 10.0 mi ENE 8.1 mph - N/A   Clear
8:15 PM 78.8 °F - 68.0 °F 69% 30.08 in 10.0 mi ENE 8.1 mph - N/A   Clear
8:35 PM 78.8 °F - 66.2 °F 65% 30.09 in 10.0 mi ENE 8.1 mph - N/A   Clear
8:55 PM 77.0 °F - 66.2 °F 69% 30.09 in 10.0 mi ENE 4.6 mph - N/A   Clear
9:15 PM 77.0 °F - 66.2 °F 69% 30.10 in 10.0 mi ENE 3.5 mph - N/A   Clear
9:55 PM 75.2 °F - 66.2 °F 73% 30.11 in 10.0 mi ENE 4.6 mph - N/A   Clear
10:15 PM 75.2 °F - 66.2 °F 73% 30.11 in 10.0 mi ENE 4.6 mph - N/A   Clear
10:35 PM 73.4 °F - 66.2 °F 78% 30.11 in 10.0 mi NE 4.6 mph - N/A   Clear
10:55 PM 73.4 °F - 66.2 °F 78% 30.11 in 10.0 mi Calm Calm - N/A   Clear
11:15 PM 71.6 °F - 66.2 °F 83% 30.11 in 10.0 mi NE 3.5 mph - N/A   Clear
11:35 PM 71.6 °F - 66.2 °F 83% 30.11 in 10.0 mi NE 3.5 mph - N/A   Clear
11:55 PM 71.6 °F - 66.2 °F 83% 30.10 in 10.0 mi Calm Calm - N/A   Clear